Location: Rounton
(54.4000°N, 1.3500°W)
Time: 12:13:31
(UTC+01:00)

Vanguard 1 - Pass Details

Date: 03 March 2024
Orbit: 653 x 3825 km, 34.2° (Epoch: 22 April)

Event Time Altitude Azimuth Distance (km) Brightness Sun altitude
Rises 19:23:23 0° 235° (SW) 4,875 14.3 -14.8°
Reaches altitude 10° 19:26:30 10° 225° (SW) 4,259 13.8 -15.2°
Maximum altitude 19:37:04 34° 167° (SSE) 3,788 12.8 -16.8°
Enters shadow 19:48:08 19° 122° (ESE) 5,526 13.3 -18.3°
